User: anonymous   Login
Location: Clyde
(45.1830°S, 169.3170°E)
Time: 20:45:19
(UTC+13:00)
Language:

Cosmos 841 Rocket - Orbit

View from above orbital plane
View from above orbital plane
View from above satellite
View from above satellite

Ground track
Ground track

The orbit data is extracted from the following two-line orbital elements,

1  9023U 76069B   19325.18138670  .00000026  00000-0  16713-4 0  9996
2  9023  74.0432 259.6285 0018255 209.5486 150.4639 14.39635652272461
Epoch (UTC): 21 November 2019 04:21:11
Eccentricity: 0.0018255
inclination: 74.0432°
perigee height: 746 km
apogee height: 773 km
right ascension of ascending node: 259.6285°
argument of perigee: 209.5486°
revolutions per day: 14.39635652
mean anomaly at epoch: 150.4639°
orbit number at epoch: 27246

The dashed part of the orbit path shows where the satellite is in the earth's shadow,  

DLR